ORBCOMM FM110

Last updated on Sat Aug 15 2026 00:03:10 GMT+0000 (Coordinated Universal Time)

1 41182U 15081D 26226.58924312 .00000225 00000+0 83702-4 0 9995 2 41182 47.0019 85.2828 0003075 339.1627 20.9133 14.58955656566153
UTC large
Height (km)
Speed (km/s)
/
Latitude / Longitude
Inclination (degrees)
Orbital Period (minutes)
Azimuth
Elevation
Range (km)
Doppler Factor

Next 0 passes for location: London (51.5072 / 0.1276)

No passes found over London.
ORBCOMM FM110